Tracking 30102 objects as of 12-Dec-2024
HD Live streaming from Space Station
objects crossing your sky now

ATLAS 5 CENTAUR DEB

Track ATLAS 5 CENTAUR DEB now!


NORAD ID: 43999
Int'l Code: 2014-055BE
Perigee: 8,155.1 km
Apogee: 35,094.7 km
Inclination: 19.7 °
Period: 777.0 minutes
Semi major axis: 27995 km
RCS: Unknown
Launch date: September 17, 2014
Source: United States (US)
Launch site: AIR FORCE EASTERN TEST RANGE (AFETR)

Note: This is SATELLITE DEBRIS
Your satellite tracking list
Your tracking list is empty




NASA's NSSDC Master Catalog

Two Line Element Set (TLE):
1 43999U 14055BE  24339.26205897 -.00000002  00000-0  00000-0 0  9992
2 43999  19.7250 205.9511 4811339  59.0630 339.6431  1.85336721 42321
Source of the keplerian elements: AFSPC